Wind_Speed
12 12 13 13 13 13 14 15 15 15 15 14 13 12 12 12 13 14 14 14 13 11 10 9 8 8 8 8 7 6 6 5 4 3 2 1 1 1 1 2 2 2 2 2 2 2 2 2 2
12 12 13 13 13 14 16 16 16 15 15 15 14 11 11 10 13 13 13 14 13 11 10 9 8 8 8 8 8 7 6 5 4 4 3 3 3 3 3 3 3 3 3 3 2 2 2 2 2
13 13 13 14 14 14 17 17 17 16 15 14 13 11 10 10 11 13 13 13 13 12 10 9 8 8 8 8 8 7 6 5 5 4 4 4 4 4 4 4 4 4 4 4 4 3 3 3 3
13 13 14 15 15 16 17 17 17 17 15 14 11 10 10 10 12 15 14 13 13 12 10 9 9 9 9 9 8 7 6 5 5 5 6 6 6 6 6 6 6 6 6 6 5 5 5 4 3
14 14 14 15 16 17 17 17 17 17 15 13 10 9 9 11 12 14 15 14 14 12 11 10 10 10 10 9 8 7 6 6 6 6 6 6 6 7 7 7 8 8 8 8 7 7 6 5 5
14 14 13 14 16 17 17 17 16 16 14 12 10 9 9 11 12 13 15 15 15 13 12 11 11 10 10 8 8 7 7 6 6 6 6 7 7 7 8 8 9 9 9 9 9 8 8 7 7
13 13 12 13 14 16 16 15 15 14 13 12 11 10 9 10 11 13 15 16 15 14 12 12 11 11 10 9 8 7 7 7 7 7 7 7 8 8 8 8 9 9 8 8 9 9 8 8 8
13 12 12 12 13 14 14 14 14 13 12 12 11 9 9 10 11 13 15 15 15 15 14 13 12 11 10 9 8 8 8 8 7 8 8 8 8 8 8 9 9 8 8 8 9 9 9 10 10
13 12 11 12 12 13 12 11 11 10 10 10 10 10 10 11 13 15 15 16 16 16 15 14 12 12 11 10 9 9 9 8 8 8 8 8 8 8 8 9 9 9 9 9 9 8 9 9 10
13 12 11 12 12 12 10 10 10 9 9 10 10 10 12 13 14 15 16 17 18 17 16 15 14 13 12 11 10 9 8 8 8 8 7 7 7 8 9 9 9 9 9 9 8 8 8 9 9
13 12 13 13 12 12 10 10 10 9 9 9 10 11 13 15 16 17 19 20 19 19 18 16 15 14 13 12 11 9 8 8 7 7 7 6 7 7 8 8 8 8 8 8 8 8 8 9 9
13 13 14 13 12 11 11 10 10 10 10 9 10 11 13 15 17 19 20 22 21 20 20 18 16 15 14 12 11 9 8 7 6 6 6 6 6 6 7 7 7 8 8 8 8 8 8 8 9
13 14 14 13 12 12 12 12 11 10 10 10 9 11 15 16 19 21 21 22 21 21 20 17 16 14 13 12 11 9 7 6 5 5 5 5 6 6 6 7 7 7 7 7 7 7 7 7 7
14 15 15 14 13 13 13 13 12 12 10 9 8 10 14 17 19 20 20 21 20 19 20 18 16 13 12 11 9 7 6 5 4 4 4 4 5 5 5 5 6 6 6 6 6 6 6 6 6
14 15 15 14 14 14 14 14 13 12 10 9 9 9 11 14 17 18 19 20 21 19 19 19 16 14 12 11 9 7 6 5 4 3 3 3 4 4 4 5 5 5 5 6 6 6 5 5 6
13 15 15 15 15 15 15 15 14 12 11 9 9 9 10 12 15 17 18 19 20 19 20 19 16 14 13 11 9 7 5 4 3 3 2 2 3 3 4 4 5 5 5 5 6 6 5 6 6
14 13 14 16 15 16 16 16 15 13 12 9 8 8 9 11 14 16 17 18 20 19 19 18 17 15 13 11 9 7 5 4 3 2 1 2 2 3 3 4 4 5 5 5 5 6 5 5 5
11 12 14 15 16 16 17 17 16 14 12 10 7 7 8 10 12 16 17 18 19 19 19 19 17 15 13 11 8 7 5 4 3 2 1 1 1 2 3 4 4 5 5 5 5 6 6 6 6
12 13 14 15 15 15 16 16 16 14 12 9 5 5 6 7 10 14 16 17 19 20 19 19 16 15 13 10 9 7 6 4 3 2 1 0 1 2 2 3 4 5 5 6 6 6 6 6 6
12 13 14 14 15 16 15 15 15 13 12 9 6 4 3 5 7 11 15 16 17 18 19 19 17 15 13 11 9 8 6 5 4 3 2 1 1 2 2 3 4 5 6 6 6 6 6 7 7
11 13 14 14 15 15 15 14 14 12 12 10 7 4 3 4 6 9 13 15 17 17 18 18 15 15 13 11 10 8 7 5 4 4 3 2 1 2 2 2 4 5 5 6 6 7 7 7 8
12 13 14 14 14 14 14 13 13 12 11 10 9 5 3 2 3 7 12 14 16 17 17 17 16 14 13 12 10 9 8 6 5 4 3 2 1 1 1 1 3 4 5 5 6 7 7 8 9
12 13 14 13 13 13 13 12 12 12 11 10 9 7 4 2 1 5 10 13 15 16 16 16 15 14 13 11 11 9 8 7 6 5 4 3 2 2 1 1 2 3 4 5 6 7 9 10 11
13 13 14 13 13 12 12 10 10 11 10 9 8 7 5 3 1 2 6 11 13 15 15 15 15 14 13 12 11 10 9 8 6 6 5 5 4 4 4 3 4 4 5 6 7 8 10 11 12
13 14 13 12 12 12 13 10 9 9 9 8 6 5 5 4 3 1 3 7 10 13 15 15 15 14 13 12 11 10 9 8 8 7 7 7 6 6 6 6 6 6 7 8 9 10 12 13 14
14 13 12 11 11 12 13 10 10 9 8 7 6 5 4 4 3 2 2 5 7 10 12 13 14 14 13 13 12 11 10 10 9 9 9 9 9 8 8 8 8 9 9 10 11 12 13 14 15
15 12 11 12 12 10 10 12 12 11 9 8 7 6 5 4 4 3 2 4 6 8 10 12 13 13 13 13 13 12 12 11 11 11 11 11 11 11 11 11 11 12 12 13 13 14 15 15 16
14 13 12 11 11 10 10 11 11 12 10 9 9 8 6 6 5 4 4 5 6 8 9 11 12 13 13 13 14 14 13 13 14 14 14 14 14 14 14 15 15 15 15 16 16 16 17 17 18
14 13 12 12 12 9 9 10 13 12 10 10 9 9 8 7 6 6 6 6 7 9 10 11 12 12 13 14 15 16 16 16 16 16 17 17 17 17 18 18 18 18 19 19 19 19 19 19 19
14 13 13 12 12 11 10 11 14 12 11 11 10 10 10 10 9 8 8 8 9 10 11 12 12 13 15 16 17 18 18 18 19 19 19 20 20 20 21 21 21 21 22 22 22 22 22 22 22
Wind_Direction
321 316 313 313 314 312 307 306 306 305 307 305 303 292 267 258 233 221 210 204 199 197 197 196 202 209 214 219 225 228 227 226 224 222 217 228 253 286 315 329 334 332 325 324 331 341 349 355 3
321 317 314 313 313 309 305 305 305 304 306 307 304 293 269 253 234 221 212 206 201 201 200 202 206 212 216 221 227 230 235 239 243 247 252 261 269 276 286 296 300 304 300 295 298 308 315 323 333
321 318 314 312 309 301 300 301 301 303 305 307 305 289 267 254 242 224 213 208 202 203 204 207 210 216 220 223 228 234 239 242 247 253 258 264 269 274 280 286 288 288 287 285 284 287 294 298 299
322 319 315 311 305 301 298 299 299 301 302 303 302 291 262 247 235 220 211 209 206 207 210 212 213 218 221 224 227 232 237 244 250 253 259 265 271 275 279 286 286 283 283 280 279 279 279 281 284
323 320 317 312 305 302 300 298 298 298 298 297 291 281 261 241 231 220 215 211 209 212 213 216 219 219 222 225 229 235 244 249 255 260 267 275 280 284 286 287 286 283 281 279 278 277 274 268 266
325 324 320 311 308 306 303 300 298 296 295 289 279 271 257 233 225 219 215 209 210 212 215 218 222 224 226 229 233 240 248 255 263 269 276 281 285 287 289 289 289 287 285 283 281 276 271 270 266
331 331 325 319 313 309 307 304 299 295 290 283 275 268 250 231 218 215 212 210 210 211 216 222 225 228 230 234 239 245 252 260 268 275 281 285 289 291 295 296 294 291 290 288 282 275 270 267 263
341 339 336 331 325 317 314 308 301 294 285 277 271 263 240 222 210 208 209 210 211 212 217 225 230 232 236 238 244 250 256 263 273 279 284 288 290 293 297 300 300 296 294 291 287 280 270 265 263
350 351 346 338 333 327 323 317 307 296 283 273 264 250 233 220 213 208 206 211 213 216 220 226 231 237 240 242 244 248 256 263 272 277 281 285 290 293 296 300 302 300 299 296 292 283 278 267 261
355 358 347 340 338 333 327 323 317 305 287 272 258 239 225 218 214 210 209 211 215 217 222 228 233 238 242 243 245 250 255 263 270 275 280 286 288 293 297 300 304 302 300 298 295 292 286 277 269
359 357 349 342 338 332 327 323 319 309 295 271 253 233 219 216 216 214 214 214 216 218 223 228 233 237 240 241 244 248 255 262 268 275 280 283 288 296 299 301 304 305 302 298 297 296 291 283 273
1 355 348 342 338 334 329 322 318 308 300 282 258 230 216 217 216 217 219 217 217 221 223 228 234 238 238 239 242 246 251 258 267 277 280 284 291 299 303 306 309 309 307 305 305 298 293 287 277
1 354 349 345 340 337 333 329 326 317 299 287 264 235 219 219 218 217 218 218 216 220 222 225 233 236 236 237 239 243 246 252 268 274 279 289 297 302 304 307 308 308 308 308 308 306 297 291 283
359 355 351 348 344 338 334 329 326 320 306 288 268 241 227 222 218 218 220 220 217 218 220 222 225 231 234 234 230 232 234 243 257 267 280 293 300 307 311 313 313 312 312 311 310 313 305 295 287
354 354 351 349 346 341 339 335 331 322 309 290 274 249 236 224 218 219 218 216 216 218 218 218 222 222 225 226 224 228 229 233 247 263 279 294 307 315 321 325 325 322 319 317 318 322 314 307 299
353 355 351 345 345 343 343 341 336 328 317 300 278 262 244 227 219 216 218 217 215 215 216 216 217 218 221 223 223 226 229 232 240 254 277 299 313 327 336 335 336 334 332 329 328 331 322 313 305
347 346 341 339 339 342 345 342 337 332 324 313 288 270 248 234 224 219 217 215 211 211 212 214 216 217 216 217 218 221 221 219 223 235 266 296 321 347 354 353 349 348 348 346 342 340 337 329 316
325 330 333 334 336 339 344 341 338 336 329 320 298 270 247 242 227 216 213 211 212 212 212 214 216 213 211 212 212 210 209 207 210 213 241 294 347 7 9 7 4 360 357 353 348 344 342 339 333
325 328 330 330 333 337 342 342 342 344 340 336 317 279 254 243 220 213 212 213 214 213 213 212 210 208 209 209 208 206 203 200 199 196 206 99 37 32 26 25 23 16 11 7 1 356 351 345 337
325 329 328 328 334 337 340 341 343 346 350 351 338 314 276 239 227 215 214 211 209 212 208 206 209 206 205 205 205 200 194 191 188 188 178 138 86 70 58 44 36 28 23 19 17 14 9 2 351
324 325 324 324 330 335 338 342 344 349 353 358 358 342 323 259 234 215 208 206 204 204 200 200 203 201 204 206 203 196 189 185 187 189 179 154 123 88 63 43 33 26 24 22 19 17 12 5 357
315 317 321 323 330 335 335 343 344 350 355 359 4 360 349 314 242 210 200 200 198 198 198 198 200 202 205 206 201 195 192 190 192 191 184 177 165 112 51 25 17 12 9 10 10 7 3 358 352
307 314 320 322 327 330 330 336 338 343 351 357 1 4 358 341 267 204 199 202 202 199 199 201 200 201 203 205 201 201 197 196 196 195 197 203 213 227 267 312 337 346 347 349 351 351 349 346 344
303 309 318 323 329 331 324 329 334 337 343 346 353 3 5 2 348 197 198 201 204 204 202 202 203 204 204 207 207 205 204 205 206 208 215 225 234 243 257 278 300 312 319 323 327 332 333 333 333
301 308 321 326 324 316 313 315 319 325 333 336 340 351 358 352 341 295 200 197 204 206 205 207 207 205 208 210 211 210 212 215 219 224 231 240 248 255 263 277 291 298 302 307 312 318 321 322 323
296 301 303 306 306 305 309 307 307 314 323 325 322 326 333 338 334 322 225 199 201 208 210 213 212 211 214 216 220 219 221 226 232 236 240 248 255 262 268 275 283 290 294 297 302 309 314 316 318
287 292 294 303 307 308 302 301 300 301 308 310 310 311 314 316 317 303 264 230 223 221 218 215 215 217 221 225 227 228 231 236 240 244 248 253 258 264 269 274 279 285 289 292 297 302 306 309 311
279 286 289 299 300 300 303 304 294 294 299 300 298 297 299 298 293 282 272 256 243 234 225 224 222 224 228 231 233 235 238 242 246 250 255 258 261 265 269 274 278 282 286 289 292 297 300 303 306
276 279 282 286 287 290 290 288 285 284 286 291 291 290 291 290 286 276 265 263 252 240 234 232 234 235 237 238 240 242 244 247 252 255 259 262 264 267 270 274 278 281 284 286 288 291 295 297 300
269 274 280 284 286 289 285 281 280 279 277 281 282 282 281 285 285 283 276 267 261 256 250 247 246 247 247 247 248 248 250 252 256 259 262 264 267 270 272 275 278 281 284 285 286 288 291 293 297
Height
5912 5911 5910 5910 5910 5910 5908 5907 5906 5905 5904 5903 5902 5901 5901 5901 5901 5904 5903 5902 5903 5903 5904 5905 5906 5907 5908 5909 5909 5910 5910 5909 5909 5909 5909 5909 5909 5909 5909 5909 5909 5909 5909 5909 5908 5908 5908 5908 5907
5910 5909 5909 5908 5908 5908 5906 5904 5904 5903 5902 5901 5899 5899 5898 5898 5898 5899 5899 5900 5901 5902 5902 5903 5905 5906 5907 5908 5908 5909 5909 5909 5909 5909 5909 5909 5909 5909 5909 5909 5909 5908 5908 5908 5908 5908 5907 5907 5907
5908 5907 5907 5906 5906 5905 5903 5902 5901 5900 5899 5898 5897 5896 5896 5896 5896 5897 5897 5898 5900 5900 5901 5902 5903 5905 5906 5906 5907 5907 5908 5908 5908 5908 5908 5908 5908 5908 5908 5908 5908 5907 5907 5907 5907 5907 5906 5906 5906
5906 5905 5905 5904 5903 5901 5900 5899 5897 5896 5896 5895 5895 5894 5894 5894 5894 5894 5895 5897 5898 5899 5900 5901 5902 5903 5904 5905 5906 5906 5907 5907 5907 5907 5907 5907 5906 5906 5906 5906 5906 5906 5906 5905 5905 5905 5905 5905 5904
5903 5903 5903 5901 5899 5897 5896 5895 5894 5893 5893 5892 5892 5891 5891 5891 5891 5892 5893 5894 5896 5897 5898 5900 5901 5902 5903 5903 5904 5905 5905 5905 5905 5905 5905 5905 5905 5905 5904 5904 5904 5904 5903 5903 5903 5903 5903 5903 5903
5902 5901 5900 5898 5896 5894 5892 5891 5890 5890 5889 5889 5889 5889 5888 5888 5888 5889 5890 5892 5894 5895 5897 5898 5899 5900 5901 5902 5902 5903 5903 5903 5903 5903 5903 5903 5903 5902 5902 5901 5901 5901 5901 5901 5901 5900 5901 5901 5901
5900 5898 5897 5896 5893 5891 5889 5887 5887 5886 5886 5886 5886 5886 5886 5885 5885 5887 5888 5890 5892 5893 5895 5896 5897 5898 5899 5900 5901 5901 5901 5901 5901 5901 5901 5901 5900 5900 5899 5899 5899 5898 5898 5898 5898 5898 5898 5898 5898
5897 5897 5894 5893 5891 5888 5886 5884 5883 5882 5882 5882 5883 5883 5883 5883 5884 5885 5886 5888 5890 5892 5893 5895 5896 5897 5897 5898 5899 5899 5899 5899 5899 5899 5899 5898 5898 5897 5897 5897 5896 5896 5896 5895 5895 5895 5895 5896 5896
5895 5895 5893 5891 5888 5886 5883 5881 5880 5879 5879 5878 5879 5880 5880 5881 5881 5883 5884 5886 5888 5890 5891 5893 5894 5895 5896 5896 5896 5897 5897 5897 5897 5897 5896 5896 5896 5895 5895 5894 5894 5893 5893 5893 5893 5893 5892 5892 5893
5894 5893 5891 5889 5886 5884 5881 5879 5878 5876 5876 5875 5875 5876 5877 5878 5879 5880 5881 5883 5885 5887 5889 5891 5892 5893 5894 5894 5895 5895 5895 5895 5895 5895 5894 5894 5893 5893 5892 5892 5891 5891 5890 5890 5890 5890 5889 5889 5889
5893 5892 5889 5887 5884 5882 5879 5877 5875 5874 5873 5872 5872 5872 5873 5874 5876 5877 5879 5880 5882 5885 5887 5888 5890 5891 5892 5892 5893 5893 5893 5893 5893 5893 5892 5892 5891 5891 5890 5890 5889 5888 5888 5888 5887 5887 5887 5887 5886
5893 5891 5888 5886 5883 5880 5878 5876 5874 5872 5871 5870 5868 5868 5870 5871 5872 5874 5875 5877 5880 5882 5884 5886 5887 5889 5889 5890 5891 5891 5891 5891 5891 5891 5890 5890 5889 5889 5888 5887 5887 5886 5886 5885 5885 5884 5884 5884 5884
5892 5890 5887 5884 5882 5879 5876 5874 5872 5870 5868 5866 5865 5865 5866 5867 5869 5870 5872 5874 5876 5879 5881 5883 5885 5886 5887 5888 5889 5889 5889 5889 5889 5889 5888 5888 5888 5887 5887 5886 5885 5884 5884 5883 5882 5882 5881 5881 5881
5891 5889 5886 5883 5881 5878 5875 5873 5870 5868 5866 5864 5863 5863 5863 5864 5865 5867 5869 5871 5874 5876 5879 5881 5882 5884 5885 5886 5887 5887 5887 5888 5888 5888 5887 5887 5886 5886 5885 5884 5884 5883 5882 5882 5881 5880 5880 5879 5879
5890 5888 5886 5883 5880 5877 5875 5872 5869 5866 5864 5862 5861 5860 5860 5860 5862 5864 5866 5868 5871 5873 5876 5878 5880 5882 5883 5884 5885 5886 5886 5886 5886 5886 5886 5885 5885 5884 5884 5883 5882 5881 5881 5880 5879 5879 5878 5878 5878
5890 5888 5886 5883 5880 5877 5875 5872 5868 5864 5862 5860 5858 5857 5857 5858 5859 5861 5863 5865 5867 5871 5873 5876 5878 5879 5881 5882 5883 5884 5884 5885 5885 5885 5884 5884 5884 5883 5882 5882 5881 5880 5880 5879 5878 5878 5877 5877 5876
5890 5889 5886 5883 5879 5876 5873 5870 5866 5863 5860 5858 5856 5855 5855 5855 5857 5858 5860 5862 5865 5868 5870 5873 5875 5877 5879 5880 5881 5882 5883 5884 5884 5884 5883 5883 5883 5882 5881 5881 5880 5880 5879 5878 5877 5877 5876 5876 5875
5890 5888 5885 5882 5878 5875 5872 5868 5865 5861 5858 5856 5854 5853 5853 5853 5854 5856 5858 5860 5863 5865 5868 5870 5873 5875 5877 5879 5880 5881 5882 5882 5883 5883 5883 5882 5882 5881 5881 5880 5880 5879 5878 5878 5877 5876 5875 5874 5874
5887 5885 5883 5881 5877 5874 5871 5868 5864 5860 5857 5854 5853 5851 5851 5851 5852 5853 5855 5857 5860 5862 5865 5868 5870 5872 5875 5877 5879 5880 5881 5881 5882 5882 5882 5882 5881 5881 5880 5880 5879 5878 5878 5877 5876 5875 5874 5873 5873
5886 5884 5882 5879 5876 5873 5870 5867 5864 5860 5857 5855 5852 5851 5850 5849 5850 5851 5852 5854 5856 5859 5862 5865 5868 5871 5874 5876 5877 5879 5879 5880 5881 5881 5881 5881 5881 5880 5880 5880 5879 5878 5877 5877 5876 5875 5874 5873 5872
5884 5882 5880 5878 5875 5871 5869 5867 5863 5860 5858 5855 5853 5851 5850 5849 5849 5849 5850 5852 5854 5857 5860 5864 5866 5870 5872 5874 5876 5877 5878 5879 5880 5880 5880 5880 5880 5880 5880 5879 5879 5878 5877 5877 5876 5874 5873 5872 5871
5883 5881 5878 5876 5873 5871 5869 5867 5863 5860 5858 5855 5853 5852 5850 5849 5849 5848 5849 5851 5854 5856 5859 5862 5865 5868 5871 5873 5874 5876 5877 5878 5879 5879 5880 5880 5879 5879 5879 5879 5878 5878 5877 5876 5875 5874 5873 5872 5870
5880 5878 5876 5874 5872 5870 5868 5866 5865 5861 5858 5856 5854 5852 5851 5850 5849 5849 5849 5851 5853 5856 5858 5861 5864 5867 5869 5871 5873 5874 5875 5877 5877 5878 5879 5879 5879 5878 5878 5878 5877 5877 5876 5875 5874 5873 5871 5870 5869
5878 5876 5874 5872 5871 5870 5867 5866 5864 5861 5858 5856 5855 5853 5851 5850 5850 5849 5850 5851 5853 5855 5857 5860 5863 5865 5868 5870 5871 5873 5874 5875 5876 5877 5877 5878 5878 5877 5877 5877 5876 5876 5875 5874 5873 5871 5870 5868 5867
5876 5875 5875 5874 5872 5870 5866 5864 5863 5860 5858 5856 5855 5854 5853 5852 5851 5850 5850 5851 5852 5854 5856 5858 5861 5863 5866 5868 5869 5871 5872 5874 5875 5875 5876 5876 5876 5876 5876 5875 5875 5874 5873 5872 5871 5870 5868 5866 5864
5873 5873 5873 5872 5870 5868 5864 5862 5861 5858 5857 5855 5855 5854 5853 5852 5852 5851 5851 5851 5852 5853 5855 5857 5859 5862 5864 5866 5868 5869 5871 5872 5873 5874 5874 5874 5874 5874 5874 5873 5872 5872 5871 5870 5868 5867 5865 5864 5862
5870 5869 5869 5867 5866 5865 5863 5860 5858 5856 5855 5854 5854 5853 5853 5852 5852 5851 5851 5851 5852 5852 5854 5856 5858 5860 5862 5864 5866 5867 5868 5870 5871 5871 5871 5871 5871 5871 5871 5870 5870 5869 5867 5866 5865 5864 5862 5860 5858
5867 5866 5865 5864 5864 5863 5862 5859 5857 5854 5853 5853 5852 5852 5852 5851 5851 5851 5851 5851 5851 5852 5853 5855 5857 5859 5861 5862 5864 5865 5866 5867 5868 5868 5868 5868 5868 5868 5867 5867 5866 5865 5864 5862 5861 5860 5858 5856 5854
5862 5862 5861 5861 5860 5860 5860 5860 5854 5852 5852 5851 5850 5850 5850 5850 5850 5850 5850 5851 5851 5851 5852 5854 5855 5857 5858 5860 5861 5862 5863 5864 5864 5864 5864 5864 5864 5864 5863 5862 5861 5860 5859 5858 5856 5855 5853 5851 5849
5858 5857 5857 5858 5857 5855 5855 5858 5851 5849 5849 5849 5848 5848 5848 5848 5848 5848 5849 5849 5850 5851 5851 5852 5853 5854 5855 5857 5858 5859 5859 5860 5860 5860 5860 5860 5859 5859 5858 5857 5856 5855 5854 5852 5851 5849 5847 5845 5843